THORAD DELTA 1 DEB, 8174

Orbit data source: Space-Track

THORAD DELTA 1 DEB, 8174 is space debris in SSO originally from a launch on Fri, 15 Nov 1974 UTC launched from the Air Force Western Test Range (AFWTR). Debris objects in space refer to the collection of defunct objects orbiting the Earth. Examples of debris include non-operational satellites, rocket bodies, and fragments generated from explosions, collisions, or faulty payload assembly.

Loading next visibility...
Identifier
8174, 1974-089AQ
Orbit
SSO
Country
Flag of USUS
Related business
Manufacturer
Unknown
Mission
Spacecraft
Bus & Motor
Unknown
Mass
Unknown
Launch date (UTC)
1974-11-15 (51 years ago)
Launch vehicle
Unknown
Launch site
Air Force Western Test Range (AFWTR)
Object type
Payload
Rocket body
Debris
Shape & HBR
Unknown shape, 0.2 m
Radar Cross Section
Small (<0.1 m²)

Expand to show TLE details & history
Last TLE update: 8 hours ago

TLE from 8 hours ago
0 THORAD DELTA 1 DEB
1  8174U 74089AQ  26062.18327929 -.00000018  00000-0  17583-3 0  9992
2  8174 101.9501  51.4702 0065521 171.8721 250.9022 12.53434258344956
Epoch: 2026-03-03T04:23Z
TLE epoch observation values (Epoch: 2026-03-03T04:23:55.330Z)
Latitude
59.89972°
Longitude
163.21971°
Altitude
1,477.234 km
Speed
7.122 km/s
True Right ascension
02h 00m 39s
True Declination
59° 45' 50"
Sunlit
Object was in daylight at epoch
Visualization orbit readout
Latitude
Unknown
Longitude
Unknown
Altitude
Unknown
Speed
Unknown
Apparent Right ascension
Unknown
Apparent Declination
Unknown
Sunlit
N/A
Visualization observer readout
Local Sidereal Time
15:42:55
Azimuth
Unknown
Elevation
Unknown
Doppler factor
Unknown
Orbital elements
Apogee altitude
1,498.993 km
Perigee altitude
1,396.441 km
Semi-major axis
7,825.854 km
Eccentricity
0.00655
Inclination
101.9501°
RAAN
51.4702°
Arg. of periapsis
171.8721°
True anomaly
250.19462°
Mean anomaly
250.9022°
Eccentric anomaly
250.54822°
Mean motion
3.13506 °/min
Orbital period
114.83 mins
BSTAR
0.00017583
Loading maneuver chart data...
Computing Atmospheric mass density...

Documentation

Showing up to 5 results
|